sat.trackr.live / text

‹ back to catalog

STARLINK-31826

NORAD 59768 · 2024-091R

PAYLOAD ACTIVE UNKNOWN

§ Identity

Operator
Country
US
Launch date
2024-05-14
Launch site
AFWTR
Launch vehicle
Mass (kg)
RCS (m²)

Purposes: comms

External: N2YO · Heavens-Above · Gunter

§ Orbital elements

Epoch: 2026-09-21T04:03:42.434496Z

Period
91.84 min
Inclination
53.1424°
Eccentricity
0.0010021
Mean motion
15.68020658 rev/d
Perigee alt
357.8 km
Apogee alt
371.3 km
Semi-major
6,742.7 km
B*
5.3956e-4
RAAN
175.1449°
Arg perigee
82.5944°
Mean anomaly
277.6212°
Rev number
13,326

§ Raw data

STARLINK-318261 59768U 24091R   26264.16924114  .00061001  00000+0  53956-3 0  99972 59768  53.1424 175.1449 0010021  82.5944 277.6212 15.68020658133266

JSON: /api/v1/satellites/59768 · /tle

For live sub-satellite position, see the globe view (requires WebGL).

§ Visibility from observer

Set your observer location to see the next 7 days of passes ≥ 10°. The values pass through the URL so the page stays shareable.

No JS? Fill the form by hand. The geolocation button needs JavaScript.